| time (UTC) | temp F | wind direction | speed knots | gust knots | rain 1hr in | rain 24hr in | rain mn in | humidity % | barometer mb |
| 20260506204804 | 55 | 310 | 1.7 | 6.1 | 0.00 | 0.00 | 0.00 | 46 | 1011.8 |
| 20260506204304 | 54 | 12 | 0.9 | 2.6 | 0.00 | 0.00 | 0.00 | 47 | 1011.8 |
| 20260506203805 | 54 | 297 | 2.6 | 4.3 | 0.00 | 0.00 | 0.00 | 47 | 1011.9 |
| 20260506202805 | 55 | 330 | 1.7 | 5.2 | 0.00 | 0.00 | 0.00 | 46 | 1011.9 |
| 20260506202306 | 56 | 298 | 1.7 | 4.3 | 0.00 | 0.00 | 0.00 | 45 | 1011.8 |
| 20260506201304 | 56 | 292 | 0.9 | 7.0 | 0.00 | 0.00 | 0.00 | 48 | 1011.8 |
| 20260506200804 | 56 | 332 | 1.7 | 6.1 | 0.00 | 0.00 | 0.00 | 48 | 1012.0 |
| 20260506200304 | 56 | 270 | 2.6 | 7.0 | 0.00 | 0.00 | 0.00 | 45 | 1012.0 |
| 20260506195804 | 56 | 245 | 1.7 | 12.2 | 0.00 | 0.00 | 0.00 | 46 | 1012.2 |
| 20260506195306 | 56 | 312 | 2.6 | 6.1 | 0.00 | 0.00 | 0.00 | 46 | 1012.2 |
| 20260506194804 | 56 | 261 | 1.7 | 2.6 | 0.00 | 0.00 | 0.00 | 47 | 1012.1 |
| 20260506194304 | 56 | 295 | 1.7 | 4.3 | 0.00 | 0.00 | 0.00 | 47 | 1012.2 |
| 20260506192305 | 54 | 306 | 2.6 | 4.3 | 0.00 | 0.00 | 0.00 | 50 | 1012.3 |
| 20260506191804 | 54 | 297 | 1.7 | 2.6 | 0.00 | 0.00 | 0.00 | 50 | 1012.4 |
| 20260506191305 | 54 | 302 | 1.7 | 2.6 | 0.00 | 0.00 | 0.00 | 51 | 1012.4 |
| 20260506185804 | 54 | 306 | 0.9 | 2.6 | 0.00 | 0.00 | 0.00 | 51 | 1012.5 |
| 20260506185307 | 54 | 246 | 1.7 | 2.6 | 0.00 | 0.00 | 0.00 | 51 | 1012.4 |
| 20260506184305 | 55 | 222 | 0.9 | 4.3 | 0.00 | 0.00 | 0.00 | 49 | 1012.4 |
| 20260506183804 | 55 | 265 | 1.7 | 4.3 | 0.00 | 0.00 | 0.00 | 46 | 1012.3 |
| 20260506183305 | 55 | 310 | 0.9 | 5.2 | 0.00 | 0.00 | 0.00 | 53 | 1012.2 |
| 20260506182306 | 54 | 3 | 1.7 | 4.3 | 0.00 | 0.00 | 0.00 | 54 | 1012.2 |
| 20260506181804 | 54 | 356 | 0.9 | 5.2 | 0.00 | 0.00 | 0.00 | 56 | 1012.2 |
| 20260506181305 | 53 | 315 | 1.7 | 2.6 | 0.00 | 0.00 | 0.00 | 52 | 1012.2 |
| 20260506180804 | 53 | 326 | 1.7 | 2.6 | 0.00 | 0.00 | 0.00 | 54 | 1012.2 |
| 20260506175804 | 52 | 276 | 1.7 | 4.3 | 0.00 | 0.00 | 0.00 | 51 | 1012.3 |
| 20260506175306 | 52 | 300 | 1.7 | 5.2 | 0.00 | 0.00 | 0.00 | 54 | 1012.4 |
| 20260506174304 | 52 | 316 | 1.7 | 5.2 | 0.00 | 0.00 | 0.00 | 54 | 1012.4 |
| 20260506173804 | 52 | 304 | 0.9 | 2.6 | 0.00 | 0.00 | 0.00 | 56 | 1012.4 |
| 20260506173304 | 52 | 301 | 0.9 | 2.6 | 0.00 | 0.00 | 0.00 | 56 | 1012.6 |
| 20260506172306 | 51 | 308 | 0.9 | 2.6 | 0.00 | 0.00 | 0.00 | 57 | 1012.8 |
| 20260506171304 | 51 | 308 | 0.9 | 2.6 | 0.00 | 0.00 | 0.00 | 55 | 1012.8 |
| 20260506170804 | 51 | 330 | 0.9 | 2.6 | 0.00 | 0.00 | 0.00 | 56 | 1012.8 |
| 20260506164804 | 51 | 328 | 0.9 | 2.6 | 0.00 | 0.01 | 0.00 | 56 | 1012.6 |
| 20260506164304 | 51 | 0 | 0.9 | 2.6 | 0.00 | 0.01 | 0.00 | 56 | 1012.7 |
| 20260506163804 | 51 | 290 | 0.9 | 2.6 | 0.00 | 0.02 | 0.00 | 55 | 1012.6 |
| 20260506163304 | 51 | 358 | 1.7 | 4.3 | 0.00 | 0.02 | 0.00 | 55 | 1012.5 |
| 20260506162804 | 51 | 258 | 0.9 | 2.6 | 0.00 | 0.02 | 0.00 | 56 | 1012.5 |
| 20260506162307 | 51 | 310 | 1.7 | 4.3 | 0.00 | 0.02 | 0.00 | 52 | 1012.5 |
| 20260506161804 | 51 | 292 | 1.7 | 4.3 | 0.00 | 0.02 | 0.00 | 52 | 1012.4 |
| 20260506161304 | 51 | 303 | 2.6 | 5.2 | 0.00 | 0.02 | 0.00 | 50 | 1012.3 |
| 20260506160805 | 52 | 312 | 1.7 | 6.1 | 0.00 | 0.02 | 0.00 | 48 | 1012.4 |
| 20260506155804 | 52 | 311 | 1.7 | 5.2 | 0.00 | 0.02 | 0.00 | 52 | 1012.3 |
| 20260506154804 | 52 | 269 | 4.3 | 8.7 | 0.00 | 0.02 | 0.00 | 51 | 1012.1 |
| 20260506154304 | 52 | 297 | 1.7 | 5.2 | 0.00 | 0.02 | 0.00 | 52 | 1012.2 |
| 20260506153804 | 52 | 345 | 1.7 | 2.6 | 0.00 | 0.02 | 0.00 | 53 | 1012.1 |
| 20260506153304 | 52 | 301 | 2.6 | 7.0 | 0.00 | 0.02 | 0.00 | 50 | 1012.1 |
| 20260506152306 | 52 | 297 | 2.6 | 7.0 | 0.00 | 0.02 | 0.00 | 50 | 1012.1 |
| 20260506151805 | 53 | 292 | 1.7 | 5.2 | 0.00 | 0.02 | 0.00 | 51 | 1012.1 |
| 20260506150804 | 53 | 309 | 1.7 | 6.1 | 0.00 | 0.02 | 0.00 | 52 | 1011.8 |
| 20260506150305 | 52 | 17 | 2.6 | 6.1 | 0.00 | 0.02 | 0.00 | 53 | 1011.9 |
| 20260506145804 | 52 | 1 | 1.7 | 4.3 | 0.00 | 0.02 | 0.00 | 52 | 1011.8 |
| 20260506145305 | 52 | 290 | 1.7 | 2.6 | 0.00 | 0.02 | 0.00 | 54 | 1011.7 |
| 20260506144804 | 52 | 308 | 1.7 | 6.1 | 0.00 | 0.02 | 0.00 | 52 | 1011.8 |
| 20260506144304 | 53 | 298 | 1.7 | 2.6 | 0.00 | 0.02 | 0.00 | 53 | 1011.7 |
| 20260506143804 | 52 | 296 | 1.7 | 4.3 | 0.00 | 0.02 | 0.00 | 52 | 1011.6 |
| 20260506143304 | 52 | 292 | 0.9 | 4.3 | 0.00 | 0.02 | 0.00 | 55 | 1011.5 |
| 20260506142804 | 52 | 304 | 0.9 | 7.8 | 0.00 | 0.02 | 0.00 | 53 | 1011.6 |
| 20260506142306 | 51 | 253 | 1.7 | 6.1 | 0.00 | 0.02 | 0.00 | 53 | 1011.5 |
| 20260506141804 | 51 | 293 | 2.6 | 7.0 | 0.00 | 0.02 | 0.00 | 52 | 1011.4 |
| 20260506140805 | 51 | 298 | 3.5 | 7.8 | 0.00 | 0.02 | 0.00 | 51 | 1011.5 |
| 20260506140304 | 51 | 323 | 1.7 | 2.6 | 0.00 | 0.02 | 0.00 | 55 | 1011.4 |
| 20260506135804 | 51 | 318 | 0.9 | 2.6 | 0.00 | 0.02 | 0.00 | 55 | 1011.4 |
| 20260506135306 | 51 | 262 | 1.7 | 2.6 | 0.00 | 0.02 | 0.00 | 57 | 1011.3 |
| 20260506134804 | 50 | 300 | 0.9 | 2.6 | 0.00 | 0.02 | 0.00 | 56 | 1011.2 |
| 20260506133804 | 50 | 331 | 2.6 | 6.1 | 0.00 | 0.02 | 0.00 | 54 | 1011.2 |
| 20260506133304 | 50 | 307 | 1.7 | 4.3 | 0.00 | 0.02 | 0.00 | 55 | 1011.3 |
| 20260506132804 | 50 | 314 | 0.9 | 2.6 | 0.00 | 0.02 | 0.00 | 54 | 1011.3 |
| 20260506132307 | 50 | 325 | 1.7 | 2.6 | 0.00 | 0.02 | 0.00 | 55 | 1011.2 |
| 20260506131804 | 49 | 306 | 1.7 | 2.6 | 0.00 | 0.02 | 0.00 | 58 | 1011.1 |
| 20260506131304 | 49 | 303 | 1.7 | 2.6 | 0.00 | 0.02 | 0.00 | 59 | 1010.9 |
| 20260506130304 | 49 | 304 | 0.9 | 2.6 | 0.00 | 0.02 | 0.00 | 61 | 1011.0 |
| 20260506125804 | 48 | 309 | 0.0 | 2.6 | 0.00 | 0.02 | 0.00 | 61 | 1010.8 |
| 20260506125305 | 48 | 296 | 0.9 | 2.6 | 0.00 | 0.02 | 0.00 | 63 | 1010.9 |
| 20260506124804 | 47 | 296 | 0.9 | 2.6 | 0.00 | 0.02 | 0.00 | 63 | 1010.7 |
| 20260506124305 | 47 | 301 | 1.7 | 4.3 | 0.00 | 0.02 | 0.00 | 64 | 1010.7 |
| 20260506123804 | 47 | 274 | 0.9 | 2.6 | 0.00 | 0.02 | 0.00 | 64 | 1010.7 |
| 20260506123304 | 46 | 303 | 1.7 | 2.6 | 0.00 | 0.02 | 0.00 | 65 | 1010.7 |
| 20260506122804 | 46 | 298 | 0.9 | 1.7 | 0.00 | 0.02 | 0.00 | 66 | 1010.6 |
| 20260506122306 | 46 | 308 | 0.9 | 2.6 | 0.00 | 0.02 | 0.00 | 67 | 1010.4 |
| 20260506121304 | 45 | 355 | 0.0 | 0.0 | 0.00 | 0.02 | 0.00 | 70 | 1010.2 |
| 20260506120304 | 44 | 355 | 0.9 | 1.7 | 0.00 | 0.02 | 0.00 | 70 | 1010.0 |
| 20260506115804 | 44 | 0 | 0.0 | 0.0 | 0.00 | 0.02 | 0.00 | 71 | 1010.1 |
| 20260506115307 | 44 | 355 | 0.0 | 0.9 | 0.00 | 0.02 | 0.00 | 70 | 1010.1 |
| 20260506114304 | 44 | 331 | 0.9 | 1.7 | 0.00 | 0.02 | 0.00 | 71 | 1010.0 |
| 20260506113804 | 44 | 306 | 0.0 | 1.7 | 0.00 | 0.02 | 0.00 | 71 | 1010.0 |
| 20260506113305 | 44 | 306 | 0.0 | 0.9 | 0.00 | 0.02 | 0.00 | 71 | 1009.9 |
| 20260506112306 | 44 | 306 | 0.0 | 1.7 | 0.00 | 0.02 | 0.00 | 71 | 1009.9 |
| 20260506111804 | 44 | 306 | 0.0 | 0.9 | 0.00 | 0.02 | 0.00 | 71 | 1009.8 |
| 20260506111304 | 44 | 306 | 0.0 | 0.9 | 0.00 | 0.02 | 0.00 | 71 | 1009.7 |
| 20260506110804 | 44 | 306 | 0.0 | 1.7 | 0.00 | 0.02 | 0.00 | 70 | 1009.6 |
| 20260506110304 | 44 | 306 | 0.0 | 1.7 | 0.00 | 0.02 | 0.00 | 69 | 1009.5 |
| 20260506105804 | 44 | 306 | 0.0 | 0.0 | 0.00 | 0.02 | 0.00 | 69 | 1009.4 |
| 20260506105305 | 44 | 306 | 0.0 | 0.0 | 0.00 | 0.02 | 0.00 | 69 | 1009.2 |
| 20260506104803 | 44 | 306 | 0.0 | 0.0 | 0.00 | 0.02 | 0.00 | 69 | 1009.1 |
| 20260506104304 | 45 | 306 | 0.0 | 0.0 | 0.00 | 0.02 | 0.00 | 69 | 1009.2 |
| 20260506103804 | 45 | 306 | 0.0 | 0.0 | 0.00 | 0.02 | 0.00 | 69 | 1009.1 |
| 20260506103304 | 45 | 306 | 0.0 | 0.0 | 0.00 | 0.02 | 0.00 | 67 | 1009.1 |
| 20260506102804 | 45 | 306 | 0.0 | 0.9 | 0.00 | 0.02 | 0.00 | 67 | 1009.0 |
| 20260506102305 | 45 | 306 | 0.0 | 0.9 | 0.00 | 0.02 | 0.00 | 67 | 1008.9 |
| 20260506101804 | 45 | 306 | 0.0 | 0.9 | 0.00 | 0.02 | 0.00 | 67 | 1008.9 |
| 20260506101304 | 45 | 306 | 0.0 | 1.7 | 0.00 | 0.02 | 0.00 | 67 | 1008.9 |
| 20260506100804 | 45 | 306 | 0.9 | 2.6 | 0.00 | 0.02 | 0.00 | 67 | 1008.9 |
| 20260506100304 | 45 | 306 | 0.0 | 1.7 | 0.00 | 0.02 | 0.00 | 67 | 1008.8 |
| 20260506095804 | 45 | 306 | 0.9 | 2.6 | 0.00 | 0.02 | 0.00 | 67 | 1008.8 |
| 20260506094804 | 45 | 323 | 0.0 | 2.6 | 0.00 | 0.02 | 0.00 | 67 | 1008.7 |
| 20260506094304 | 45 | 323 | 0.0 | 1.7 | 0.00 | 0.02 | 0.00 | 67 | 1008.7 |
| 20260506093804 | 45 | 323 | 0.9 | 1.7 | 0.00 | 0.02 | 0.00 | 67 | 1008.7 |
| 20260506093304 | 45 | 347 | 0.0 | 0.0 | 0.00 | 0.02 | 0.00 | 68 | 1008.7 |
| 20260506092804 | 46 | 347 | 0.0 | 0.0 | 0.00 | 0.02 | 0.00 | 67 | 1008.5 |
| 20260506092306 | 46 | 347 | 0.0 | 0.0 | 0.00 | 0.02 | 0.00 | 67 | 1008.5 |
| 20260506091804 | 46 | 347 | 0.0 | 2.6 | 0.00 | 0.02 | 0.00 | 67 | 1008.3 |
| 20260506091304 | 46 | 6 | 0.0 | 2.6 | 0.00 | 0.02 | 0.00 | 68 | 1008.2 |
| 20260506090804 | 46 | 0 | 0.0 | 0.9 | 0.00 | 0.02 | 0.00 | 67 | 1008.4 |
| 20260506090304 | 46 | 43 | 0.0 | 2.6 | 0.00 | 0.02 | 0.00 | 68 | 1008.4 |
| 20260506085804 | 46 | 306 | 0.0 | 2.6 | 0.00 | 0.02 | 0.00 | 67 | 1008.4 |
| 20260506085306 | 46 | 306 | 0.0 | 1.7 | 0.00 | 0.02 | 0.00 | 67 | 1008.2 |
| 20260506084804 | 46 | 306 | 0.9 | 4.3 | 0.00 | 0.02 | 0.00 | 67 | 1008.2 |
| 20260506083804 | 46 | 241 | 0.0 | 0.0 | 0.00 | 0.02 | 0.00 | 67 | 1008.2 |
| 20260506083304 | 46 | 241 | 0.0 | 0.0 | 0.00 | 0.02 | 0.00 | 68 | 1008.1 |
| 20260506082804 | 46 | 241 | 0.0 | 0.9 | 0.00 | 0.02 | 0.00 | 68 | 1008.2 |
| 20260506081304 | 46 | 241 | 0.9 | 2.6 | 0.00 | 0.02 | 0.00 | 67 | 1008.1 |
| 20260506080305 | 46 | 241 | 0.0 | 1.7 | 0.00 | 0.02 | 0.00 | 67 | 1008.1 |
| 20260506073304 | 46 | 241 | 0.0 | 0.9 | 0.00 | 0.02 | 0.00 | 68 | 1008.1 |
| 20260506072804 | 46 | 241 | 0.0 | 0.9 | 0.00 | 0.02 | 0.00 | 71 | 1008.2 |
| 20260506072306 | 46 | 241 | 0.0 | 1.7 | 0.00 | 0.02 | 0.00 | 70 | 1008.3 |
| 20260506071804 | 46 | 241 | 0.0 | 0.9 | 0.00 | 0.02 | 0.00 | 70 | 1008.2 |
| 20260506071303 | 46 | 241 | 0.0 | 2.6 | 0.00 | 0.02 | 0.00 | 70 | 1008.1 |
| 20260506070804 | 46 | 241 | 0.0 | 0.0 | 0.00 | 0.02 | 0.00 | 71 | 1008.1 |
| 20260506070304 | 46 | 241 | 0.0 | 0.0 | 0.00 | 0.02 | 0.00 | 73 | 1008.0 |
| 20260506062306 | 46 | 241 | 0.0 | 0.0 | 0.00 | 0.02 | 0.00 | 73 | 1008.5 |
| 20260506061804 | 46 | 241 | 0.0 | 0.9 | 0.00 | 0.02 | 0.00 | 72 | 1008.5 |
| 20260506061305 | 46 | 241 | 0.0 | 0.0 | 0.00 | 0.02 | 0.00 | 74 | 1008.4 |
| 20260506060804 | 46 | 241 | 0.0 | 0.9 | 0.00 | 0.02 | 0.00 | 73 | 1008.5 |
| 20260506060304 | 46 | 241 | 0.0 | 0.9 | 0.00 | 0.02 | 0.00 | 73 | 1008.5 |
| 20260506051304 | 46 | 241 | 0.0 | 0.0 | 0.00 | 0.03 | 0.00 | 77 | 1008.3 |
| 20260506050804 | 47 | 241 | 0.0 | 0.0 | 0.00 | 0.04 | 0.00 | 78 | 1008.4 |
| 20260506050305 | 47 | 241 | 0.0 | 0.0 | 0.00 | 0.05 | 0.00 | 78 | 1008.3 |
| 20260506044804 | 47 | 241 | 0.0 | 0.0 | 0.00 | 0.07 | 0.00 | 78 | 1008.5 |
| 20260506044304 | 47 | 241 | 0.0 | 0.0 | 0.00 | 0.07 | 0.00 | 78 | 1008.4 |
| 20260506043304 | 47 | 241 | 0.0 | 0.0 | 0.00 | 0.07 | 0.00 | 77 | 1008.3 |
| 20260506042305 | 47 | 241 | 0.0 | 0.0 | 0.00 | 0.09 | 0.00 | 74 | 1008.3 |
| 20260506041804 | 47 | 241 | 0.0 | 0.0 | 0.00 | 0.12 | 0.00 | 72 | 1008.3 |
| 20260506041304 | 47 | 241 | 0.0 | 0.0 | 0.00 | 0.14 | 0.00 | 73 | 1008.3 |
| 20260506040827 | 47 | 241 | 0.0 | 0.0 | 0.00 | 0.17 | 0.00 | 74 | 1008.4 |
| 20260506035803 | 47 | 241 | 0.0 | 0.0 | 0.00 | 0.18 | 0.18 | 76 | 1008.3 |
| 20260506035306 | 47 | 241 | 0.0 | 0.0 | 0.00 | 0.18 | 0.18 | 75 | 1008.2 |
| 20260506034804 | 47 | 241 | 0.0 | 0.0 | 0.00 | 0.18 | 0.18 | 72 | 1008.1 |
| 20260506034304 | 47 | 241 | 0.0 | 0.0 | 0.00 | 0.18 | 0.18 | 73 | 1008.1 |
| 20260506033804 | 47 | 241 | 0.0 | 0.0 | 0.00 | 0.18 | 0.18 | 73 | 1008.0 |
| 20260506033304 | 47 | 241 | 0.0 | 0.0 | 0.00 | 0.18 | 0.18 | 73 | 1008.0 |
| 20260506032804 | 47 | 241 | 0.0 | 0.0 | 0.00 | 0.18 | 0.18 | 72 | 1007.8 |
| 20260506032306 | 47 | 241 | 0.0 | 0.0 | 0.00 | 0.18 | 0.18 | 73 | 1007.8 |
| 20260506031804 | 47 | 241 | 0.0 | 0.0 | 0.00 | 0.18 | 0.18 | 72 | 1007.9 |
| 20260506031305 | 48 | 241 | 0.0 | 0.0 | 0.00 | 0.18 | 0.18 | 72 | 1008.0 |
| 20260506030804 | 48 | 241 | 0.0 | 0.0 | 0.00 | 0.18 | 0.18 | 72 | 1008.1 |
| 20260506030304 | 48 | 241 | 0.0 | 0.0 | 0.00 | 0.18 | 0.18 | 73 | 1008.2 |
| 20260506025305 | 48 | 241 | 0.0 | 0.0 | 0.00 | 0.18 | 0.18 | 72 | 1008.1 |
| 20260506024304 | 48 | 241 | 0.0 | 0.0 | 0.00 | 0.18 | 0.18 | 72 | 1008.1 |
| 20260506023304 | 48 | 241 | 0.0 | 0.0 | 0.00 | 0.18 | 0.18 | 69 | 1008.1 |
| 20260506022804 | 48 | 241 | 0.0 | 0.0 | 0.00 | 0.18 | 0.18 | 70 | 1008.2 |
| 20260506022305 | 48 | 241 | 0.0 | 0.0 | 0.00 | 0.18 | 0.18 | 68 | 1008.1 |
| 20260506021804 | 48 | 241 | 0.0 | 0.0 | 0.00 | 0.18 | 0.18 | 69 | 1008.1 |
| 20260506021305 | 48 | 241 | 0.0 | 0.0 | 0.00 | 0.18 | 0.18 | 68 | 1008.0 |
| 20260506020803 | 48 | 241 | 0.0 | 0.0 | 0.00 | 0.18 | 0.18 | 67 | 1008.0 |
| 20260506020304 | 49 | 241 | 0.0 | 0.0 | 0.00 | 0.18 | 0.18 | 69 | 1008.1 |
| 20260506015804 | 49 | 241 | 0.0 | 0.0 | 0.00 | 0.18 | 0.18 | 65 | 1008.0 |
| 20260506015306 | 49 | 241 | 0.0 | 0.0 | 0.00 | 0.18 | 0.18 | 66 | 1007.9 |
| 20260506014806 | 49 | 241 | 0.0 | 0.0 | 0.00 | 0.18 | 0.18 | 64 | 1007.9 |
| 20260506013806 | 49 | 241 | 0.0 | 0.0 | 0.00 | 0.18 | 0.18 | 65 | 1007.7 |
| 20260506013305 | 49 | 241 | 0.0 | 0.9 | 0.00 | 0.18 | 0.18 | 62 | 1007.7 |
| 20260506012806 | 49 | 241 | 0.0 | 0.0 | 0.00 | 0.18 | 0.18 | 61 | 1007.6 |
| 20260506012308 | 49 | 241 | 0.0 | 0.0 | 0.00 | 0.18 | 0.18 | 64 | 1007.5 |
| 20260506011806 | 50 | 241 | 0.0 | 0.0 | 0.00 | 0.18 | 0.18 | 63 | 1007.5 |
| 20260506011305 | 50 | 241 | 0.0 | 0.0 | 0.00 | 0.18 | 0.18 | 61 | 1007.4 |
| 20260506010806 | 50 | 241 | 0.0 | 0.0 | 0.00 | 0.18 | 0.18 | 61 | 1007.2 |
| 20260506010305 | 50 | 241 | 0.0 | 0.0 | 0.00 | 0.18 | 0.18 | 60 | 1007.3 |
| 20260506005306 | 50 | 241 | 0.0 | 0.0 | 0.00 | 0.18 | 0.18 | 57 | 1007.4 |
| 20260506004805 | 51 | 241 | 0.0 | 2.6 | 0.00 | 0.18 | 0.18 | 58 | 1007.4 |
| 20260506004305 | 51 | 310 | 0.9 | 2.6 | 0.00 | 0.18 | 0.18 | 56 | 1007.4 |
| 20260506003805 | 51 | 310 | 0.9 | 5.2 | 0.00 | 0.18 | 0.18 | 57 | 1007.4 |
| 20260506003305 | 51 | 318 | 0.9 | 1.7 | 0.00 | 0.18 | 0.18 | 59 | 1007.5 |
| 20260506002806 | 51 | 309 | 0.0 | 2.6 | 0.00 | 0.18 | 0.18 | 59 | 1007.5 |
| 20260506002306 | 51 | 314 | 0.9 | 2.6 | 0.00 | 0.18 | 0.18 | 58 | 1007.6 |
| 20260506001805 | 51 | 258 | 0.0 | 1.7 | 0.00 | 0.18 | 0.18 | 60 | 1007.6 |
| 20260506001306 | 51 | 242 | 0.0 | 1.7 | 0.00 | 0.18 | 0.18 | 57 | 1007.4 |
| 20260506000806 | 51 | 242 | 0.9 | 2.6 | 0.00 | 0.18 | 0.18 | 58 | 1007.5 |
| 20260506000305 | 52 | 259 | 0.9 | 2.6 | 0.00 | 0.18 | 0.18 | 58 | 1007.4 |
| 20260505234806 | 52 | 292 | 0.0 | 1.7 | 0.00 | 0.18 | 0.18 | 59 | 1007.3 |
| 20260505234305 | 52 | 306 | 0.9 | 2.6 | 0.00 | 0.18 | 0.18 | 59 | 1007.2 |
| 20260505233805 | 52 | 225 | 0.9 | 2.6 | 0.00 | 0.19 | 0.18 | 59 | 1007.0 |
| 20260505233306 | 52 | 312 | 0.9 | 1.7 | 0.00 | 0.19 | 0.18 | 60 | 1006.9 |
| 20260505232306 | 52 | 317 | 0.0 | 0.9 | 0.00 | 0.22 | 0.18 | 61 | 1006.8 |
| 20260505231805 | 52 | 317 | 0.0 | 0.9 | 0.00 | 0.22 | 0.18 | 60 | 1006.7 |
| 20260505231306 | 53 | 317 | 0.0 | 1.7 | 0.00 | 0.22 | 0.18 | 59 | 1006.7 |
| 20260505230805 | 53 | 334 | 0.0 | 2.6 | 0.00 | 0.22 | 0.18 | 59 | 1006.8 |
| 20260505230306 | 53 | 340 | 0.9 | 1.7 | 0.00 | 0.22 | 0.18 | 58 | 1006.8 |
| 20260505225805 | 53 | 296 | 0.9 | 1.7 | 0.00 | 0.23 | 0.18 | 59 | 1006.8 |
| 20260505225306 | 53 | 341 | 0.0 | 1.7 | 0.00 | 0.28 | 0.18 | 59 | 1006.8 |
| 20260505224805 | 53 | 333 | 0.9 | 1.7 | 0.00 | 0.32 | 0.18 | 61 | 1006.9 |
| 20260505224305 | 53 | 325 | 0.9 | 1.7 | 0.00 | 0.32 | 0.18 | 62 | 1006.8 |
| 20260505223805 | 53 | 323 | 0.9 | 2.6 | 0.00 | 0.32 | 0.18 | 61 | 1006.9 |
| 20260505223305 | 53 | 309 | 0.9 | 4.3 | 0.00 | 0.32 | 0.18 | 64 | 1006.8 |
| 20260505222805 | 54 | 350 | 0.9 | 4.3 | 0.00 | 0.32 | 0.18 | 64 | 1006.8 |
| 20260505222306 | 54 | 258 | 1.7 | 2.6 | 0.00 | 0.32 | 0.18 | 63 | 1006.9 |
| 20260505221306 | 54 | 281 | 0.9 | 2.6 | 0.00 | 0.32 | 0.18 | 64 | 1006.9 |
| 20260505220805 | 54 | 304 | 1.7 | 2.6 | 0.00 | 0.32 | 0.18 | 64 | 1006.7 |
| 20260505220305 | 54 | 241 | 0.0 | 2.6 | 0.00 | 0.32 | 0.18 | 64 | 1006.7 |
| 20260505215805 | 54 | 296 | 0.9 | 4.3 | 0.00 | 0.32 | 0.18 | 64 | 1006.7 |
| 20260505215305 | 54 | 286 | 0.9 | 2.6 | 0.00 | 0.32 | 0.18 | 65 | 1006.6 |
| 20260505214805 | 54 | 309 | 1.7 | 2.6 | 0.00 | 0.32 | 0.18 | 66 | 1006.7 |
| 20260505214305 | 54 | 296 | 0.9 | 5.2 | 0.00 | 0.32 | 0.18 | 67 | 1006.7 |
| 20260505213806 | 54 | 269 | 1.7 | 5.2 | 0.00 | 0.32 | 0.18 | 67 | 1006.7 |
| 20260505213305 | 54 | 306 | 0.9 | 4.3 | 0.00 | 0.32 | 0.18 | 70 | 1006.7 |
| 20260505212806 | 54 | 303 | 0.9 | 2.6 | 0.00 | 0.32 | 0.18 | 69 | 1006.7 |
| 20260505212306 | 54 | 298 | 0.9 | 2.6 | 0.00 | 0.32 | 0.18 | 69 | 1006.7 |
| 20260505211805 | 54 | 309 | 1.7 | 4.3 | 0.00 | 0.32 | 0.18 | 69 | 1006.7 |
| 20260505211305 | 54 | 252 | 2.6 | 6.1 | 0.00 | 0.32 | 0.18 | 69 | 1006.7 |
| 20260505210806 | 54 | 255 | 1.7 | 6.1 | 0.00 | 0.32 | 0.18 | 71 | 1006.7 |
| 20260505210306 | 54 | 264 | 1.7 | 5.2 | 0.00 | 0.32 | 0.18 | 72 | 1006.6 |
| 20260505205805 | 54 | 252 | 2.6 | 4.3 | 0.00 | 0.32 | 0.18 | 71 | 1006.7 |
| 20260505205306 | 54 | 276 | 0.9 | 2.6 | 0.00 | 0.32 | 0.18 | 71 | 1006.8 |